Year,Month,Day,Hour,Minute,Value (Times are PST for temperature in C)
2010,06,19,00,00,13.90
2010,06,19,00,01,13.80
2010,06,19,00,02,13.80
2010,06,19,00,03,13.70
2010,06,19,00,04,13.70
2010,06,19,00,05,13.70
2010,06,19,00,06,13.60
2010,06,19,00,07,13.60
2010,06,19,00,08,13.60
2010,06,19,00,09,13.50
2010,06,19,00,10,13.50
2010,06,19,00,11,13.50
2010,06,19,00,12,13.50
2010,06,19,00,13,13.40
2010,06,19,00,14,13.40
2010,06,19,00,15,13.40
2010,06,19,00,16,13.40
2010,06,19,00,17,13.40
2010,06,19,00,18,13.40
2010,06,19,00,19,13.40
2010,06,19,00,20,13.40
2010,06,19,00,21,13.40
2010,06,19,00,22,13.40
2010,06,19,00,23,13.40
2010,06,19,00,24,13.50
2010,06,19,00,25,13.60
2010,06,19,00,26,13.70
2010,06,19,00,27,13.90
2010,06,19,00,28,14.00
2010,06,19,00,29,14.10
2010,06,19,00,30,14.10
2010,06,19,00,31,14.10
2010,06,19,00,32,14.10
2010,06,19,00,33,14.10
2010,06,19,00,34,14.10
2010,06,19,00,35,14.10
2010,06,19,00,36,14.10
2010,06,19,00,37,14.00
2010,06,19,00,38,14.00
2010,06,19,00,39,13.90
2010,06,19,00,40,13.90
2010,06,19,00,41,13.80
2010,06,19,00,42,13.70
2010,06,19,00,43,13.60
2010,06,19,00,44,13.50
2010,06,19,00,45,13.30
2010,06,19,00,46,13.30
2010,06,19,00,47,13.20
2010,06,19,00,48,13.10
2010,06,19,00,49,13.00
2010,06,19,00,50,13.00
2010,06,19,00,51,12.90
2010,06,19,00,52,12.80
2010,06,19,00,53,12.80
2010,06,19,00,54,12.70
2010,06,19,00,55,12.70
2010,06,19,00,56,12.60
2010,06,19,00,57,12.60
2010,06,19,00,58,12.60
2010,06,19,00,59,12.60
2010,06,19,01,00,12.60
2010,06,19,01,01,12.50
2010,06,19,01,02,12.50
2010,06,19,01,03,12.50
2010,06,19,01,04,12.50
2010,06,19,01,05,12.50
2010,06,19,01,06,12.50
2010,06,19,01,07,12.50
2010,06,19,01,08,12.50
2010,06,19,01,09,12.50
2010,06,19,01,10,12.50
2010,06,19,01,11,12.60
2010,06,19,01,12,12.50
2010,06,19,01,13,12.50
2010,06,19,01,14,12.50
2010,06,19,01,15,12.50
2010,06,19,01,16,12.40
2010,06,19,01,17,12.40
2010,06,19,01,18,12.40
2010,06,19,01,19,12.40
2010,06,19,01,20,12.40
2010,06,19,01,21,12.40
2010,06,19,01,22,12.30
2010,06,19,01,23,12.30
2010,06,19,01,24,12.30
2010,06,19,01,25,12.20
2010,06,19,01,26,12.20
2010,06,19,01,27,12.20
2010,06,19,01,28,12.10
2010,06,19,01,29,12.10
2010,06,19,01,30,12.10
2010,06,19,01,31,12.10
2010,06,19,01,32,12.10
2010,06,19,01,33,12.10
2010,06,19,01,34,12.10
2010,06,19,01,35,12.00
2010,06,19,01,36,12.00
2010,06,19,01,37,12.00
2010,06,19,01,38,12.00
2010,06,19,01,39,12.00
2010,06,19,01,40,12.00
2010,06,19,01,41,11.90
2010,06,19,01,42,11.90
2010,06,19,01,43,11.90
2010,06,19,01,44,11.90
2010,06,19,01,45,11.90
2010,06,19,01,46,11.90
2010,06,19,01,47,11.90
2010,06,19,01,48,11.90
2010,06,19,01,49,11.90
2010,06,19,01,50,11.90
2010,06,19,01,51,11.80
2010,06,19,01,52,11.80
2010,06,19,01,53,11.80
2010,06,19,01,54,11.80
2010,06,19,01,55,11.80
2010,06,19,01,56,11.90
2010,06,19,01,57,11.80
2010,06,19,01,58,11.80
2010,06,19,01,59,11.80
2010,06,19,02,00,11.80
2010,06,19,02,01,11.80
2010,06,19,02,02,11.80
2010,06,19,02,03,11.80
2010,06,19,02,04,11.90
2010,06,19,02,05,11.90
2010,06,19,02,06,11.90
2010,06,19,02,07,11.90
2010,06,19,02,08,11.90
2010,06,19,02,09,11.90
2010,06,19,02,10,11.90
2010,06,19,02,11,11.90
2010,06,19,02,12,11.90
2010,06,19,02,13,11.90
2010,06,19,02,14,11.80
2010,06,19,02,15,11.80
2010,06,19,02,16,11.80
2010,06,19,02,17,11.80
2010,06,19,02,18,11.80
2010,06,19,02,19,11.80
2010,06,19,02,20,11.80
2010,06,19,02,21,11.70
2010,06,19,02,22,11.70
2010,06,19,02,23,11.70
2010,06,19,02,24,11.70
2010,06,19,02,25,11.70
2010,06,19,02,26,11.80
2010,06,19,02,27,11.80
2010,06,19,02,28,11.90
2010,06,19,02,29,12.00
2010,06,19,02,30,12.10
2010,06,19,02,31,12.20
2010,06,19,02,32,12.20
2010,06,19,02,33,12.30
2010,06,19,02,34,12.30
2010,06,19,02,35,12.30
2010,06,19,02,36,12.40
2010,06,19,02,37,12.40
2010,06,19,02,38,12.40
2010,06,19,02,39,12.40
2010,06,19,02,40,12.40
2010,06,19,02,41,12.50
2010,06,19,02,42,12.50
2010,06,19,02,43,12.50
2010,06,19,02,44,12.50
2010,06,19,02,45,12.50
2010,06,19,02,46,12.40
2010,06,19,02,47,12.40
2010,06,19,02,48,12.40
2010,06,19,02,49,12.30
2010,06,19,02,50,12.30
2010,06,19,02,51,12.30
2010,06,19,02,52,12.30
2010,06,19,02,53,12.40
2010,06,19,02,54,12.40
2010,06,19,02,55,12.40
2010,06,19,02,56,12.40
2010,06,19,02,57,12.40
2010,06,19,02,58,12.40
2010,06,19,02,59,12.30
2010,06,19,03,00,12.30
2010,06,19,03,01,12.30
2010,06,19,03,02,12.30
2010,06,19,03,06,12.30
2010,06,19,03,07,12.30
2010,06,19,03,08,12.20
2010,06,19,03,09,12.20
2010,06,19,03,10,12.20
2010,06,19,03,11,12.20
2010,06,19,03,12,12.20
2010,06,19,03,13,12.20
2010,06,19,03,14,12.20
2010,06,19,03,15,12.10
2010,06,19,03,16,12.10
2010,06,19,03,17,12.10
2010,06,19,03,18,12.10
2010,06,19,03,19,12.20
2010,06,19,03,20,12.40
2010,06,19,03,21,12.50
2010,06,19,03,22,12.60
2010,06,19,03,23,12.70
2010,06,19,03,24,12.90
2010,06,19,03,25,13.10
2010,06,19,03,26,13.30
2010,06,19,03,27,13.50
2010,06,19,03,28,13.70
2010,06,19,03,29,13.80
2010,06,19,03,30,13.90
2010,06,19,03,31,13.90
2010,06,19,03,32,14.00
2010,06,19,03,33,14.10
2010,06,19,03,34,14.00
2010,06,19,03,35,14.00
2010,06,19,03,36,13.90
2010,06,19,03,37,13.90
2010,06,19,03,38,13.80
2010,06,19,03,39,13.80
2010,06,19,03,40,13.70
2010,06,19,03,41,13.70
2010,06,19,03,42,13.70
2010,06,19,03,43,13.70
2010,06,19,03,44,13.70
2010,06,19,03,45,13.70
2010,06,19,03,46,13.80
2010,06,19,03,47,13.80
2010,06,19,03,48,13.80
2010,06,19,03,49,13.80
2010,06,19,03,50,13.90
2010,06,19,03,51,13.90
2010,06,19,03,52,13.90
2010,06,19,03,53,14.00
2010,06,19,03,54,14.00
2010,06,19,03,55,14.00
2010,06,19,03,56,14.10
2010,06,19,03,57,14.10
2010,06,19,03,58,14.10
2010,06,19,03,59,14.10
2010,06,19,04,00,14.00
2010,06,19,04,01,14.00
2010,06,19,04,02,13.90
2010,06,19,04,03,13.90
2010,06,19,04,04,13.80
2010,06,19,04,05,13.80
2010,06,19,04,06,13.70
2010,06,19,04,07,13.70
2010,06,19,04,08,13.70
2010,06,19,04,09,13.60
2010,06,19,04,10,13.50
2010,06,19,04,11,13.40
2010,06,19,04,12,13.30
2010,06,19,04,13,13.30
2010,06,19,04,14,13.10
2010,06,19,04,15,13.00
2010,06,19,04,16,12.90
2010,06,19,04,17,12.80
2010,06,19,04,18,12.80
2010,06,19,04,19,12.70
2010,06,19,04,20,12.70
2010,06,19,04,21,12.60
2010,06,19,04,22,12.50
2010,06,19,04,23,12.40
2010,06,19,04,24,12.40
2010,06,19,04,25,12.30
2010,06,19,04,26,12.20
2010,06,19,04,27,12.10
2010,06,19,04,28,12.10
2010,06,19,04,29,12.10
2010,06,19,04,30,12.00
2010,06,19,04,31,11.90
2010,06,19,04,32,11.90
2010,06,19,04,33,11.90
2010,06,19,04,34,11.80
2010,06,19,04,35,11.80
2010,06,19,04,36,11.70
2010,06,19,04,37,11.70
2010,06,19,04,38,11.60
2010,06,19,04,39,11.60
2010,06,19,04,40,11.60
2010,06,19,04,41,11.50
2010,06,19,04,42,11.50
2010,06,19,04,43,11.50
2010,06,19,04,44,11.50
2010,06,19,04,45,11.50
2010,06,19,04,46,11.50
2010,06,19,04,47,11.50
2010,06,19,04,48,11.50
2010,06,19,04,49,11.50
2010,06,19,04,50,11.50
2010,06,19,04,51,11.50
2010,06,19,04,52,11.50
2010,06,19,04,53,11.50
2010,06,19,04,54,11.50
2010,06,19,04,55,11.40
2010,06,19,04,56,11.40
2010,06,19,04,57,11.40
2010,06,19,04,58,11.40
2010,06,19,04,59,11.40
2010,06,19,05,00,11.40
2010,06,19,05,01,11.30
2010,06,19,05,02,11.30
2010,06,19,05,03,11.30
2010,06,19,05,04,11.30
2010,06,19,05,05,11.20
2010,06,19,05,06,11.20
2010,06,19,05,07,11.20
2010,06,19,05,08,11.20
2010,06,19,05,09,11.20
2010,06,19,05,10,11.20
2010,06,19,05,11,11.10
2010,06,19,05,12,11.10
2010,06,19,05,13,11.10
2010,06,19,05,14,11.00
2010,06,19,05,15,11.00
2010,06,19,05,16,11.00
2010,06,19,05,17,11.00
2010,06,19,05,18,11.00
2010,06,19,05,19,11.00
2010,06,19,05,20,10.90
2010,06,19,05,21,10.90
2010,06,19,05,22,10.90
2010,06,19,05,23,10.90
2010,06,19,05,24,10.90
2010,06,19,05,25,10.90
2010,06,19,05,26,10.90
2010,06,19,05,27,10.90
2010,06,19,05,28,10.90
2010,06,19,05,29,10.90
2010,06,19,05,30,10.90
2010,06,19,05,31,10.90
2010,06,19,05,32,10.90
2010,06,19,05,33,10.90
2010,06,19,05,34,10.90
2010,06,19,05,35,10.90
2010,06,19,05,36,10.90
2010,06,19,05,37,10.90
2010,06,19,05,38,10.90
2010,06,19,05,39,10.90
2010,06,19,05,40,10.90
2010,06,19,05,41,10.90
2010,06,19,05,42,10.90
2010,06,19,05,43,10.90
2010,06,19,05,44,11.00
2010,06,19,05,45,11.00
2010,06,19,05,46,11.00
2010,06,19,05,47,11.10
2010,06,19,05,48,11.10
2010,06,19,05,49,11.10
2010,06,19,05,50,11.20
2010,06,19,05,51,11.20
2010,06,19,05,52,11.20
2010,06,19,05,53,11.30
2010,06,19,05,54,11.30
2010,06,19,05,55,11.30
2010,06,19,05,56,11.40
2010,06,19,05,57,11.40
2010,06,19,05,58,11.40
2010,06,19,05,59,11.50
2010,06,19,06,00,11.50
2010,06,19,06,01,11.60
2010,06,19,06,02,11.60
2010,06,19,06,03,11.60
2010,06,19,06,04,11.60
2010,06,19,06,05,11.60
2010,06,19,06,06,11.70
2010,06,19,06,07,11.70
2010,06,19,06,08,11.70
2010,06,19,06,09,11.70
2010,06,19,06,10,11.80
2010,06,19,06,11,11.80
2010,06,19,06,12,11.80
2010,06,19,06,13,11.80
2010,06,19,06,14,11.90
2010,06,19,06,15,11.90
2010,06,19,06,16,11.90
2010,06,19,06,17,11.90
2010,06,19,06,18,12.00
2010,06,19,06,19,12.00
2010,06,19,06,20,12.00
2010,06,19,06,21,12.10
2010,06,19,06,22,12.10
2010,06,19,06,23,12.10
2010,06,19,06,24,12.20
2010,06,19,06,25,12.30
2010,06,19,06,26,12.30
2010,06,19,06,27,12.30
2010,06,19,06,28,12.40
2010,06,19,06,29,12.40
2010,06,19,06,30,12.50
2010,06,19,06,31,12.60
2010,06,19,06,32,12.60
2010,06,19,06,33,12.70
2010,06,19,06,34,12.70
2010,06,19,06,35,12.80
2010,06,19,06,36,12.90
2010,06,19,06,37,12.90
2010,06,19,06,38,13.00
2010,06,19,06,39,13.10
2010,06,19,06,40,13.20
2010,06,19,06,41,13.30
2010,06,19,06,42,13.30
2010,06,19,06,43,13.40
2010,06,19,06,44,13.50
2010,06,19,06,45,13.50
2010,06,19,06,46,13.60
2010,06,19,06,47,13.70
2010,06,19,06,48,13.80
2010,06,19,06,49,13.90
2010,06,19,06,50,13.90
2010,06,19,06,51,14.00
2010,06,19,06,52,14.10
2010,06,19,06,53,14.20
2010,06,19,06,54,14.30
2010,06,19,06,55,14.40
2010,06,19,06,56,14.50
2010,06,19,06,57,14.50
2010,06,19,06,58,14.60
2010,06,19,06,59,14.70
2010,06,19,07,00,14.70
2010,06,19,07,01,14.70
2010,06,19,07,02,14.80
2010,06,19,07,03,15.00
2010,06,19,07,04,15.00
2010,06,19,07,05,15.10
2010,06,19,07,06,15.20
2010,06,19,07,07,15.30
2010,06,19,07,08,15.40
2010,06,19,07,09,15.40
2010,06,19,07,10,15.50
2010,06,19,07,11,15.50
2010,06,19,07,12,15.60
2010,06,19,07,13,15.60
2010,06,19,07,14,15.60
2010,06,19,07,15,15.70
2010,06,19,07,16,15.70
2010,06,19,07,17,15.70
2010,06,19,07,18,15.70
2010,06,19,07,19,15.80
2010,06,19,07,20,15.80
2010,06,19,07,21,15.80
2010,06,19,07,22,15.80
2010,06,19,07,23,15.90
2010,06,19,07,24,15.90
2010,06,19,07,25,16.00
2010,06,19,07,26,16.00
2010,06,19,07,27,16.10
2010,06,19,07,28,16.10
2010,06,19,07,29,16.20
2010,06,19,07,30,16.20
2010,06,19,07,31,16.30
2010,06,19,07,32,16.30
2010,06,19,07,33,16.40
2010,06,19,07,34,16.40
2010,06,19,07,35,16.40
2010,06,19,07,36,16.50
2010,06,19,07,37,16.50
2010,06,19,07,38,16.60
2010,06,19,07,39,16.60
2010,06,19,07,40,16.60
2010,06,19,07,41,16.60
2010,06,19,07,42,16.70
2010,06,19,07,43,16.70
2010,06,19,07,44,16.70
2010,06,19,07,45,16.80
2010,06,19,07,46,16.80
2010,06,19,07,47,16.80
2010,06,19,07,48,16.90
2010,06,19,07,49,16.90
2010,06,19,07,50,16.90
2010,06,19,07,51,16.90
2010,06,19,07,52,16.80
2010,06,19,07,53,16.80
2010,06,19,07,54,16.80
2010,06,19,07,55,16.70
2010,06,19,07,56,16.70
2010,06,19,07,57,16.60
2010,06,19,07,58,16.60
2010,06,19,07,59,16.60
2010,06,19,08,00,16.60
2010,06,19,08,01,16.60
2010,06,19,08,02,16.60
2010,06,19,08,03,16.60
2010,06,19,08,04,16.60
2010,06,19,08,05,16.60
2010,06,19,08,06,16.70
2010,06,19,08,07,16.70
2010,06,19,08,08,16.80
2010,06,19,08,09,16.80
2010,06,19,08,10,16.90
2010,06,19,08,11,17.00
2010,06,19,08,12,17.10
2010,06,19,08,13,17.20
2010,06,19,08,14,17.20
2010,06,19,08,15,17.40
2010,06,19,08,16,17.50
2010,06,19,08,17,17.40
2010,06,19,08,18,17.40
2010,06,19,08,19,17.20
2010,06,19,08,20,17.20
2010,06,19,08,21,17.10
2010,06,19,08,22,17.10
2010,06,19,08,23,17.00
2010,06,19,08,24,16.80
2010,06,19,08,25,16.60
2010,06,19,08,26,16.50
2010,06,19,08,27,16.50
2010,06,19,08,28,16.50
2010,06,19,08,29,16.50
2010,06,19,08,30,16.50
2010,06,19,08,31,16.60
2010,06,19,08,32,16.70
2010,06,19,08,33,16.80
2010,06,19,08,34,16.90
2010,06,19,08,35,17.00
2010,06,19,08,36,17.10
2010,06,19,08,37,17.10
2010,06,19,08,38,17.20
2010,06,19,08,39,17.30
2010,06,19,08,40,17.40
2010,06,19,08,41,17.50
2010,06,19,08,42,17.60
2010,06,19,08,43,17.70
2010,06,19,08,44,17.80
2010,06,19,08,45,18.00
2010,06,19,08,46,18.10
2010,06,19,08,47,18.10
2010,06,19,08,48,18.20
2010,06,19,08,49,18.20
2010,06,19,08,50,18.20
2010,06,19,08,51,18.20
2010,06,19,08,52,18.20
2010,06,19,08,53,18.10
2010,06,19,08,54,18.10
2010,06,19,08,55,18.10
2010,06,19,08,56,18.10
2010,06,19,08,57,18.10
2010,06,19,08,58,18.20
2010,06,19,08,59,18.20
2010,06,19,09,00,18.20
2010,06,19,09,01,18.30
2010,06,19,09,02,18.40
2010,06,19,09,03,18.40
2010,06,19,09,04,18.40
2010,06,19,09,05,18.40
2010,06,19,09,06,18.40
2010,06,19,09,07,18.50
2010,06,19,09,08,18.50
2010,06,19,09,09,18.60
2010,06,19,09,10,18.70
2010,06,19,09,11,18.70
2010,06,19,09,12,18.70
2010,06,19,09,13,18.80
2010,06,19,09,14,18.80
2010,06,19,09,15,18.80
2010,06,19,09,16,18.80
2010,06,19,09,17,18.90
2010,06,19,09,18,18.90
2010,06,19,09,19,19.00
2010,06,19,09,20,19.10
2010,06,19,09,21,19.10
2010,06,19,09,22,19.10
2010,06,19,09,23,19.10
2010,06,19,09,24,19.10
2010,06,19,09,25,19.10
2010,06,19,09,26,19.10
2010,06,19,09,27,19.10
2010,06,19,09,28,19.10
2010,06,19,09,29,19.00
2010,06,19,09,30,18.90
2010,06,19,09,31,18.90
2010,06,19,09,32,18.80
2010,06,19,09,33,18.70
2010,06,19,09,34,18.70
2010,06,19,09,35,18.70
2010,06,19,09,36,18.80
2010,06,19,09,37,18.90
2010,06,19,09,38,19.00
2010,06,19,09,39,19.10
2010,06,19,09,40,19.20
2010,06,19,09,41,19.20
2010,06,19,09,42,19.20
2010,06,19,09,43,19.30
2010,06,19,09,44,19.30
2010,06,19,09,45,19.20
2010,06,19,09,46,19.10
2010,06,19,09,47,19.10
2010,06,19,09,48,19.10
2010,06,19,09,49,19.20
2010,06,19,09,50,19.30
2010,06,19,09,51,19.40
2010,06,19,09,52,19.50
2010,06,19,09,53,19.50
2010,06,19,09,54,19.50
2010,06,19,09,55,19.40
2010,06,19,09,56,19.40
2010,06,19,09,57,19.30
2010,06,19,09,58,19.40
2010,06,19,09,59,19.30
2010,06,19,10,00,19.40
2010,06,19,10,01,19.40
2010,06,19,10,02,19.20
2010,06,19,10,03,19.00
2010,06,19,10,04,18.90
2010,06,19,10,05,18.90
2010,06,19,10,06,19.00
2010,06,19,10,07,19.00
2010,06,19,10,08,19.10
2010,06,19,10,09,19.10
2010,06,19,10,10,19.00
2010,06,19,10,11,19.00
2010,06,19,10,12,18.90
2010,06,19,10,13,18.80
2010,06,19,10,14,18.70
2010,06,19,10,15,18.60
2010,06,19,10,16,18.60
2010,06,19,10,17,18.60
2010,06,19,10,18,18.70
2010,06,19,10,19,18.80
2010,06,19,10,20,18.90
2010,06,19,10,21,18.90
2010,06,19,10,22,19.00
2010,06,19,10,23,19.10
2010,06,19,10,24,19.10
2010,06,19,10,25,19.10
2010,06,19,10,26,19.20
2010,06,19,10,27,19.20
2010,06,19,10,28,19.20
2010,06,19,10,29,19.20
2010,06,19,10,30,19.20
2010,06,19,10,31,19.10
2010,06,19,10,32,19.00
2010,06,19,10,33,19.00
2010,06,19,10,34,18.90
2010,06,19,10,35,18.90
2010,06,19,10,36,18.90
2010,06,19,10,37,18.90
2010,06,19,10,38,18.90
2010,06,19,10,39,18.70
2010,06,19,10,40,18.40
2010,06,19,10,41,18.20
2010,06,19,10,42,18.00
2010,06,19,10,43,17.90
2010,06,19,10,44,17.80
2010,06,19,10,45,17.70
2010,06,19,10,46,17.70
2010,06,19,10,47,17.80
2010,06,19,10,48,17.80
2010,06,19,10,49,17.90
2010,06,19,10,50,18.00
2010,06,19,10,51,17.90
2010,06,19,10,52,17.90
2010,06,19,10,53,17.80
2010,06,19,10,54,17.80
2010,06,19,10,55,17.90
2010,06,19,10,56,17.80
2010,06,19,10,57,17.70
2010,06,19,10,58,17.80
2010,06,19,10,59,17.70
2010,06,19,11,00,17.70
2010,06,19,11,01,17.60
2010,06,19,11,02,17.60
2010,06,19,11,03,17.60
2010,06,19,11,04,17.60
2010,06,19,11,05,17.70
2010,06,19,11,06,17.90
2010,06,19,11,07,18.00
2010,06,19,11,08,18.10
2010,06,19,11,09,18.10
2010,06,19,11,10,18.10
2010,06,19,11,11,17.90
2010,06,19,11,12,17.70
2010,06,19,11,13,17.60
2010,06,19,11,14,17.70
2010,06,19,11,15,17.70
2010,06,19,11,16,17.70
2010,06,19,11,17,17.70
2010,06,19,11,18,17.70
2010,06,19,11,19,17.50
2010,06,19,11,20,17.30
2010,06,19,11,21,17.10
2010,06,19,11,22,17.00
2010,06,19,11,23,16.90
2010,06,19,11,24,17.00
2010,06,19,11,25,17.10
2010,06,19,11,26,17.00
2010,06,19,11,27,16.90
2010,06,19,11,28,16.80
2010,06,19,11,29,16.70
2010,06,19,11,30,16.80
2010,06,19,11,31,16.90
2010,06,19,11,32,17.00
2010,06,19,11,33,17.10
2010,06,19,11,34,17.30
2010,06,19,11,35,17.40
2010,06,19,11,36,17.60
2010,06,19,11,37,17.80
2010,06,19,11,38,17.90
2010,06,19,11,39,18.00
2010,06,19,11,40,17.90
2010,06,19,11,41,17.80
2010,06,19,11,42,17.80
2010,06,19,11,43,17.70
2010,06,19,11,44,17.70
2010,06,19,11,45,17.80
2010,06,19,11,46,17.80
2010,06,19,11,47,17.80
2010,06,19,11,48,17.80
2010,06,19,11,49,17.80
2010,06,19,11,50,17.90
2010,06,19,11,51,17.90
2010,06,19,11,52,18.00
2010,06,19,11,53,18.10
2010,06,19,11,54,18.30
2010,06,19,11,55,18.50
2010,06,19,11,56,18.70
2010,06,19,11,57,18.80
2010,06,19,11,58,18.90
2010,06,19,11,59,19.00
2010,06,19,12,00,18.90
2010,06,19,12,01,18.60
2010,06,19,12,02,18.60
2010,06,19,12,03,18.60
2010,06,19,12,04,18.60
2010,06,19,12,05,18.60
2010,06,19,12,06,18.80
2010,06,19,12,07,18.80
2010,06,19,12,08,18.90
2010,06,19,12,09,18.90
2010,06,19,12,10,19.00
2010,06,19,12,11,19.10
2010,06,19,12,12,19.30
2010,06,19,12,13,19.40
2010,06,19,12,14,19.50
2010,06,19,12,15,19.60
2010,06,19,12,16,19.70
2010,06,19,12,17,19.70
2010,06,19,12,18,19.80
2010,06,19,12,19,19.80
2010,06,19,12,20,19.80
2010,06,19,12,21,19.80
2010,06,19,12,22,19.70
2010,06,19,12,23,19.50
2010,06,19,12,24,19.50
2010,06,19,12,25,19.50
2010,06,19,12,26,19.60
2010,06,19,12,27,19.60
2010,06,19,12,28,19.70
2010,06,19,12,29,19.70
2010,06,19,12,30,19.80
2010,06,19,12,31,19.80
2010,06,19,12,32,19.70
2010,06,19,12,33,19.80
2010,06,19,12,34,19.90
2010,06,19,12,35,20.00
2010,06,19,12,36,20.10
2010,06,19,12,37,20.10
2010,06,19,12,38,20.20
2010,06,19,12,39,20.20
2010,06,19,12,40,20.30
2010,06,19,12,41,20.30
2010,06,19,12,42,20.10
2010,06,19,12,43,19.90
2010,06,19,12,44,19.90
2010,06,19,12,45,20.00
2010,06,19,12,46,20.00
2010,06,19,12,47,19.90
2010,06,19,12,48,20.00
2010,06,19,12,49,20.10
2010,06,19,12,50,20.10
2010,06,19,12,51,20.10
2010,06,19,12,52,20.20
2010,06,19,12,53,20.30
2010,06,19,12,54,20.30
2010,06,19,12,55,20.40
2010,06,19,12,56,20.40
2010,06,19,12,57,20.50
2010,06,19,12,58,20.50
2010,06,19,12,59,20.50
2010,06,19,13,00,20.60
2010,06,19,13,01,20.80
2010,06,19,13,02,20.80
2010,06,19,13,03,21.00
2010,06,19,13,04,21.10
2010,06,19,13,05,21.10
2010,06,19,13,06,21.10
2010,06,19,13,07,21.20
2010,06,19,13,08,21.10
2010,06,19,13,09,21.10
2010,06,19,13,10,21.00
2010,06,19,13,11,21.00
2010,06,19,13,12,20.90
2010,06,19,13,13,21.00
2010,06,19,13,14,21.00
2010,06,19,13,15,21.00
2010,06,19,13,16,21.00
2010,06,19,13,17,21.00
2010,06,19,13,18,21.00
2010,06,19,13,19,21.10
2010,06,19,13,20,21.10
2010,06,19,13,21,21.10
2010,06,19,13,22,21.00
2010,06,19,13,23,20.60
2010,06,19,13,24,20.40
2010,06,19,13,25,20.30
2010,06,19,13,26,20.40
2010,06,19,13,27,20.40
2010,06,19,13,28,20.50
2010,06,19,13,29,20.60
2010,06,19,13,30,20.70
2010,06,19,13,31,20.80
2010,06,19,13,32,20.80
2010,06,19,13,33,20.70
2010,06,19,13,34,20.70
2010,06,19,13,35,20.90
2010,06,19,13,36,21.00
2010,06,19,13,37,21.10
2010,06,19,13,38,21.30
2010,06,19,13,39,21.40
2010,06,19,13,40,21.60
2010,06,19,13,41,21.70
2010,06,19,13,42,21.80
2010,06,19,13,43,22.10
2010,06,19,13,44,22.10
2010,06,19,13,45,21.90
2010,06,19,13,46,21.70
2010,06,19,13,47,21.70
2010,06,19,13,48,21.60
2010,06,19,13,49,21.40
2010,06,19,13,50,21.40
2010,06,19,13,51,21.50
2010,06,19,13,52,21.50
2010,06,19,13,53,21.50
2010,06,19,13,54,21.50
2010,06,19,13,55,21.40
2010,06,19,13,56,21.40
2010,06,19,13,57,21.30
2010,06,19,13,58,21.30
2010,06,19,13,59,21.20
2010,06,19,14,00,21.00
2010,06,19,14,01,20.80
2010,06,19,14,02,20.70
2010,06,19,14,03,20.80
2010,06,19,14,04,20.90
2010,06,19,14,05,21.10
2010,06,19,14,06,21.30
2010,06,19,14,07,21.50
2010,06,19,14,08,21.70
2010,06,19,14,09,21.80
2010,06,19,14,10,21.90
2010,06,19,14,11,21.90
2010,06,19,14,12,21.80
2010,06,19,14,13,21.70
2010,06,19,14,14,21.60
2010,06,19,14,15,21.30
2010,06,19,14,16,21.10
2010,06,19,14,17,20.90
2010,06,19,14,18,20.70
2010,06,19,14,19,20.50
2010,06,19,14,20,20.40
2010,06,19,14,21,20.40
2010,06,19,14,22,20.60
2010,06,19,14,23,20.80
2010,06,19,14,24,21.00
2010,06,19,14,25,21.10
2010,06,19,14,26,21.00
2010,06,19,14,27,20.90
2010,06,19,14,28,20.90
2010,06,19,14,29,20.90
2010,06,19,14,30,21.00
2010,06,19,14,31,21.20
2010,06,19,14,32,21.30
2010,06,19,14,33,21.40
2010,06,19,14,34,21.50
2010,06,19,14,35,21.70
2010,06,19,14,36,21.60
2010,06,19,14,37,21.40
2010,06,19,14,38,21.10
2010,06,19,14,39,20.90
2010,06,19,14,40,20.70
2010,06,19,14,41,20.70
2010,06,19,14,42,20.60
2010,06,19,14,43,20.60
2010,06,19,14,44,20.80
2010,06,19,14,45,20.90
2010,06,19,14,46,21.00
2010,06,19,14,47,21.10
2010,06,19,14,48,21.00
2010,06,19,14,49,21.00
2010,06,19,14,50,20.90
2010,06,19,14,51,20.70
2010,06,19,14,52,20.70
2010,06,19,14,53,20.70
2010,06,19,14,54,20.70
2010,06,19,14,55,20.70
2010,06,19,14,56,20.70
2010,06,19,14,57,20.80
2010,06,19,14,58,20.80
2010,06,19,14,59,20.90
2010,06,19,15,00,21.00
2010,06,19,15,01,21.00
2010,06,19,15,02,21.20
2010,06,19,15,03,21.20
2010,06,19,15,04,21.40
2010,06,19,15,05,21.60
2010,06,19,15,06,21.70
2010,06,19,15,07,21.80
2010,06,19,15,08,21.90
2010,06,19,15,09,21.80
2010,06,19,15,10,21.70
2010,06,19,15,11,21.50
2010,06,19,15,12,21.30
2010,06,19,15,13,21.00
2010,06,19,15,14,20.80
2010,06,19,15,15,20.60
2010,06,19,15,16,20.60
2010,06,19,15,17,20.50
2010,06,19,15,18,20.60
2010,06,19,15,19,20.70
2010,06,19,15,20,20.80
2010,06,19,15,21,20.80
2010,06,19,15,22,20.90
2010,06,19,15,23,20.80
2010,06,19,15,24,20.80
2010,06,19,15,25,20.90
2010,06,19,15,26,21.00
2010,06,19,15,27,21.10
2010,06,19,15,28,21.30
2010,06,19,15,29,21.50
2010,06,19,15,30,21.60
2010,06,19,15,31,21.60
2010,06,19,15,32,21.60
2010,06,19,15,33,21.60
2010,06,19,15,34,21.60
2010,06,19,15,35,21.60
2010,06,19,15,36,21.60
2010,06,19,15,37,21.60
2010,06,19,15,38,21.50
2010,06,19,15,39,21.40
2010,06,19,15,40,21.40
2010,06,19,15,41,21.40
2010,06,19,15,42,21.50
2010,06,19,15,43,21.60
2010,06,19,15,44,21.60
2010,06,19,15,45,21.50
2010,06,19,15,46,21.40
2010,06,19,15,47,21.30
2010,06,19,15,48,21.30
2010,06,19,15,49,21.40
2010,06,19,15,50,21.40
2010,06,19,15,51,21.30
2010,06,19,15,52,21.30
2010,06,19,15,53,21.20
2010,06,19,15,54,21.30
2010,06,19,15,55,21.30
2010,06,19,15,56,21.40
2010,06,19,15,57,21.50
2010,06,19,15,58,21.60
2010,06,19,15,59,21.70
2010,06,19,16,00,21.70
2010,06,19,16,01,21.70
2010,06,19,16,02,21.60
2010,06,19,16,03,21.50
2010,06,19,16,04,21.60
2010,06,19,16,05,21.60
2010,06,19,16,06,21.60
2010,06,19,16,07,21.60
2010,06,19,16,08,21.50
2010,06,19,16,09,21.30
2010,06,19,16,10,21.10
2010,06,19,16,11,21.00
2010,06,19,16,12,21.00
2010,06,19,16,13,20.90
2010,06,19,16,14,20.80
2010,06,19,16,15,20.70
2010,06,19,16,16,20.70
2010,06,19,16,17,20.70
2010,06,19,16,18,20.80
2010,06,19,16,19,20.90
2010,06,19,16,20,20.90
2010,06,19,16,21,20.90
2010,06,19,16,22,20.90
2010,06,19,16,23,20.90
2010,06,19,16,24,20.90
2010,06,19,16,25,20.90
2010,06,19,16,26,20.90
2010,06,19,16,27,21.00
2010,06,19,16,28,21.10
2010,06,19,16,29,21.10
2010,06,19,16,30,21.00
2010,06,19,16,31,21.00
2010,06,19,16,32,21.10
2010,06,19,16,33,21.20
2010,06,19,16,34,21.30
2010,06,19,16,35,21.30
2010,06,19,16,36,21.30
2010,06,19,16,37,21.30
2010,06,19,16,38,21.40
2010,06,19,16,39,21.30
2010,06,19,16,40,21.20
2010,06,19,16,41,21.10
2010,06,19,16,42,21.10
2010,06,19,16,43,21.10
2010,06,19,16,44,21.10
2010,06,19,16,45,21.00
2010,06,19,16,46,21.00
2010,06,19,16,47,21.10
2010,06,19,16,48,21.20
2010,06,19,16,49,21.40
2010,06,19,16,50,21.50
2010,06,19,16,51,21.50
2010,06,19,16,52,21.50
2010,06,19,16,53,21.50
2010,06,19,16,54,21.50
2010,06,19,16,55,21.50
2010,06,19,16,56,21.50
2010,06,19,16,57,21.50
2010,06,19,16,58,21.50
2010,06,19,16,59,21.60
2010,06,19,17,00,21.70
2010,06,19,17,01,21.70
2010,06,19,17,02,21.70
2010,06,19,17,03,21.60
2010,06,19,17,04,21.70
2010,06,19,17,05,21.80
2010,06,19,17,06,21.80
2010,06,19,17,07,21.90
2010,06,19,17,08,22.00
2010,06,19,17,09,22.10
2010,06,19,17,10,22.20
2010,06,19,17,11,22.30
2010,06,19,17,12,22.30
2010,06,19,17,13,22.30
2010,06,19,17,14,22.30
2010,06,19,17,15,22.40
2010,06,19,17,16,22.30
2010,06,19,17,17,22.30
2010,06,19,17,18,22.10
2010,06,19,17,19,22.00
2010,06,19,17,20,21.80
2010,06,19,17,21,21.70
2010,06,19,17,22,21.50